Buoy 16575

sailwx.info

Track history (hours):
 
Tides and Currents Weather Stations Pressure Air Temp Water Temp Dewpoint Dewpoint Depression Visibility Wind Speed Wind Dir Waves Ship Positions

Drifting buoy 16575

Last reported at 2014-Jul-24 19:50 UTC. Time now 2014-Jul-24 23:07 UTC.
Position S 27°46' E 055°16'.

Barometer 1030.9 mb
Water temperature 21.2 ° C

Date/timePositionNaut miles runAvg speedWind from/ knotsBaromVisibWave heightAir tempDewpointWater temp
2014-Jul-24 19:50S 27°46' E 055°16'1 0.7 1030.9 21.2
2014-Jul-24 17:50S 27°45' E 055°17'0 0.3 1031.3 21.2
2014-Jul-24 16:50S 27°45' E 055°17'1 1.1 1029.6 21.2
2014-Jul-24 15:50S 27°44' E 055°18'0 0.1 1029.7 21.2
2014-Jul-24 14:50S 27°44' E 055°18'0 0.4 1030.1 21.3
2014-Jul-24 13:50S 27°44' E 055°18'2 0.9 1029.4 21.3
2014-Jul-24 11:50S 27°44' E 055°20'0 0.2 1026.5 21.3
2014-Jul-24 10:50S 27°44' E 055°20'1 0.8 1028.9 21.4
2014-Jul-24 09:50S 27°44' E 055°21'0 0.1 1029.2 21.4
2014-Jul-24 08:50S 27°44' E 055°21'1 0.4 1030.9 21.4
2014-Jul-24 05:50S 27°45' E 055°22'0 0.1 1032.2 21.4
2014-Jul-24 04:50S 27°44' E 055°22'0 0.1 1031.5 21.4
2014-Jul-24 03:50S 27°45' E 055°22'0 0.1 1030.3 21.4
2014-Jul-24 01:50S 27°45' E 055°22'0 0.3 1029.7 21.3
2014-Jul-24 00:50S 27°45' E 055°22'0 0.2 1028.5 21.2
2014-Jul-23 23:50S 27°44' E 055°22'0 0.3 1029.5 21.1
2014-Jul-23 22:50S 27°44' E 055°22'0 0.1 1029.0 21.1
2014-Jul-23 21:50S 27°45' E 055°22'1 0.7 1029.2 21.1
2014-Jul-23 20:50S 27°45' E 055°23'1 0.7 1028.6 21.1
2014-Jul-23 18:50S 27°46' E 055°24'1 0.9 1027.9 21.1
2014-Jul-23 17:50S 27°46' E 055°24'0 0.0 1028.6 21.2
2014-Jul-23 16:50S 27°46' E 055°24'1 0.8 1027.2 21.2
2014-Jul-23 15:50S 27°47' E 055°25'1 0.7 1026.6 21.2
2014-Jul-23 14:50S 27°47' E 055°25'0 0.3 1025.9 21.3
2014-Jul-23 13:50S 27°48' E 055°26'1 0.6 1024.3 21.3
2014-Jul-23 12:50S 27°48' E 055°26'0 0.3 1023.4 21.3
2014-Jul-23 11:50S 27°48' E 055°27'1 0.8 1023.5 21.3
2014-Jul-23 10:50S 27°48' E 055°27'0 0.0 1024.1 21.3
2014-Jul-23 08:50S 27°48' E 055°27'1 0.4 1025.2 21.3
2014-Jul-23 05:50S 27°49' E 055°28'0 0.3 1023.0 21.2
2014-Jul-23 04:50S 27°49' E 055°28'0 0.3 1028.6 21.1
2014-Jul-23 03:50S 27°50' E 055°28'1 0.3 1025.2 21.1
2014-Jul-23 01:50S 27°50' E 055°27'1 0.5 1023.2 21.1
2014-Jul-23 00:50S 27°51' E 055°27'0 0.3 1021.3 21.1
2014-Jul-22 23:50S 27°51' E 055°27'0 0.2 1022.2 21.1
2014-Jul-22 22:50S 27°51' E 055°27'1 0.4 1022.5 21.1
2014-Jul-22 20:50S 27°52' E 055°27'1 0.9 1022.1 21.1
2014-Jul-22 19:50S 27°53' E 055°26'1 0.6 1021.9 21.1
2014-Jul-22 18:50S 27°53' E 055°26'1 0.6 1022.1 21.2
2014-Jul-22 17:50S 27°54' E 055°26'0 0.0 1021.2 21.2
2014-Jul-22 16:50S 27°54' E 055°26'3 1.0 1021.2 21.2
2014-Jul-22 13:50S 27°55' E 055°23'1 0.6 1016.8 21.3
2014-Jul-22 12:50S 27°55' E 055°22'1 0.5 1016.6 21.3
2014-Jul-22 10:50S 27°56' E 055°21'1 1.1 1020.3 21.4
2014-Jul-22 09:50S 27°56' E 055°20'0 0.0 1021.1 21.4
2014-Jul-22 08:50S 27°56' E 055°20'1 0.4 1020.7 21.4
2014-Jul-22 06:50S 27°56' E 055°19'0 0.0 1024.8 21.4
2014-Jul-22 05:50S 27°56' E 055°19'0 0.4 1025.0 21.3
2014-Jul-22 04:50S 27°55' E 055°19'0 0.3 1027.6 21.3
2014-Jul-22 03:50S 27°56' E 055°19'0 0.1 1027.5 21.3
2014-Jul-22 02:50S 27°55' E 055°19'0 0.4 1021.4 21.3
2014-Jul-22 01:50S 27°56' E 055°19'1 0.6 1021.2 21.3
2014-Jul-22 00:50S 27°56' E 055°18'0 0.0 1021.6 21.3
2014-Jul-21 23:50S 27°56' E 055°18'0 0.2 1021.1 21.3
2014-Jul-21 22:50S 27°56' E 055°18'1 0.4 1021.2 21.3
2014-Jul-21 20:50S 27°57' E 055°17'2 0.8 1022.2 21.4
2014-Jul-21 18:50S 27°57' E 055°16'0 0.0 1024.4 21.4
2014-Jul-21 17:50S 27°57' E 055°16'0 0.2 1021.7 21.4
2014-Jul-21 16:50S 27°58' E 055°15'1 0.6 1021.5 21.5
2014-Jul-21 14:50S 27°58' E 055°14'2 0.8 1020.5 21.5
2014-Jul-21 12:50S 27°59' E 055°12'1 0.9 1018.1 21.5
2014-Jul-21 11:50S 27°59' E 055°11'0 0.1 1020.7 21.6
2014-Jul-21 10:50S 27°59' E 055°11'2 2.1 1021.1 21.5
2014-Jul-21 09:50S 27°59' E 055°09'5 1.5 1019.7 21.5
2014-Jul-21 06:50S 27°58' E 055°04'1 1.0 1025.9 21.5
2014-Jul-21 05:50S 27°58' E 055°03'1 1.1 1029.1 21.4
2014-Jul-21 04:50S 27°57' E 055°02'1 1.2 1027.8 21.4
2014-Jul-21 03:50S 27°57' E 055°00'2 1.6 1027.1 21.4
2014-Jul-21 02:50S 27°56' E 054°59'0 0.1 1022.1 21.4
2014-Jul-21 01:50S 27°56' E 054°59'2 1.8 1021.9 21.4
2014-Jul-21 00:50S 27°55' E 054°57'1 1.0 1022.3 21.4
2014-Jul-20 23:50S 27°55' E 054°56'1 0.5 1022.7 21.4
2014-Jul-20 22:50S 27°54' E 054°56'1 1.4 1022.7 21.5
2014-Jul-20 21:50S 27°53' E 054°55'0 0.0 1022.6 21.5
2014-Jul-20 20:50S 27°53' E 054°55'4 1.2 1022.9 21.5
2014-Jul-20 17:50S 27°50' E 054°53'2 1.6 1023.4 21.5
2014-Jul-20 16:50S 27°49' E 054°51'0 0.3 1023.6 21.6
2014-Jul-20 15:50S 27°49' E 054°52'1 0.8 1022.9 21.6
2014-Jul-20 14:50S 27°48' E 054°51'0 0.4 1021.4 21.7
2014-Jul-20 13:50S 27°48' E 054°51'1 0.9 1014.7 21.7
2014-Jul-20 12:50S 27°47' E 054°51'2 1.7 1018.7 21.8
2014-Jul-20 11:50S 27°45' E 054°51'0 0.0 1021.3 21.8
2014-Jul-20 09:50S 27°45' E 054°51'3 0.8 1023.2 21.9
2014-Jul-20 05:50S 27°42' E 054°50'2 0.8 1028.5 21.3
2014-Jul-20 03:50S 27°41' E 054°49'1 0.6 1030.1 21.3
2014-Jul-20 02:50S 27°41' E 054°49'2 0.9 1023.2 21.3
2014-Jul-20 00:50S 27°39' E 054°47'1 0.6 1023.0 21.3
2014-Jul-19 23:50S 27°39' E 054°47'0 0.0 1023.4 21.3
2014-Jul-19 22:50S 27°39' E 054°47'1 1.4 1023.1 21.3
2014-Jul-19 21:50S 27°38' E 054°46'2 0.5 1023.6 21.3
2014-Jul-19 18:50S 27°36' E 054°46'0 0.3 1024.6 21.3
2014-Jul-19 17:50S 27°36' E 054°46'1 0.6 1024.1 21.3
2014-Jul-19 16:50S 27°35' E 054°46'1 0.4 1025.6 21.3
2014-Jul-19 13:50S 27°34' E 054°47'1 1.0 1021.5 21.4
2014-Jul-19 12:50S 27°33' E 054°46'0 0.4 1021.9 21.4
2014-Jul-19 11:50S 27°33' E 054°46'1 0.9 1019.7 21.5
2014-Jul-19 10:50S 27°32' E 054°47'2 1.8 1023.7 21.5
2014-Jul-19 09:50S 27°30' E 054°46'0 0.0 1019.8 21.5
2014-Jul-19 08:50S 27°30' E 054°46'0 0.1 1018.6 21.5
2014-Jul-19 05:50S 27°30' E 054°46'0 0.4 1026.3 21.4
2014-Jul-19 04:50S 27°30' E 054°47'1 0.8 1029.2 21.4
2014-Jul-19 03:50S 27°29' E 054°47'1 0.3 1024.5 21.4
2014-Jul-19 01:50S 27°28' E 054°47'1 0.8 1024.3 21.4
2014-Jul-19 00:50S 27°28' E 054°47'0 0.1 1022.8 21.4
2014-Jul-18 23:50S 27°28' E 054°47'2 0.9 1025.0 21.4
2014-Jul-18 21:50S 27°26' E 054°47'2 0.7 1024.8 21.4
2014-Jul-18 18:50S 27°24' E 054°48'2 1.6 1026.1 21.5
2014-Jul-18 17:50S 27°23' E 054°49'0 0.0 1025.1 21.5
2014-Jul-18 16:50S 27°23' E 054°49'1 1.4 1025.3 21.5
2014-Jul-18 15:50S 27°22' E 054°50'0 0.1 1024.3 21.5
2014-Jul-18 14:50S 27°22' E 054°50'1 1.0 1023.9 21.5
2014-Jul-18 13:50S 27°21' E 054°51'0 0.2 1017.8 21.5
2014-Jul-18 12:50S 27°21' E 054°51'0 0.0 1019.7 21.5
2014-Jul-18 11:50S 27°21' E 054°51'1 1.3 1019.3 21.5
2014-Jul-18 10:50S 27°20' E 054°52'1 0.6 1023.1 21.6
2014-Jul-18 09:50S 27°20' E 054°52'1 1.0 1027.1 21.5
2014-Jul-18 08:50S 27°19' E 054°52'0 0.1 1024.5 21.5
2014-Jul-18 05:50S 27°18' E 054°52'1 0.7 1023.5 21.4
2014-Jul-18 04:50S 27°18' E 054°52'2 0.6 1030.3 21.4
2014-Jul-18 01:50S 27°16' E 054°53'0 0.5 1025.2 21.4
2014-Jul-18 00:50S 27°15' E 054°53'0 0.5 1024.7 21.4
2014-Jul-17 23:50S 27°15' E 054°53'0 0.2 1027.0 21.4
2014-Jul-17 22:50S 27°15' E 054°53'1 0.6 1026.1 21.4
2014-Jul-17 21:50S 27°15' E 054°53'1 0.7 1026.8 21.4
2014-Jul-17 19:50S 27°14' E 054°54'0 0.1 1027.2 21.5
2014-Jul-17 16:50S 27°13' E 054°54'1 0.6 1027.2 21.5
2014-Jul-17 15:50S 27°13' E 054°55'1 0.2 1025.8 21.5
2014-Jul-17 09:50S 27°13' E 054°56'0 0.1 1026.2 21.8
2014-Jul-17 05:50S 27°13' E 054°56'0 0.3 1034.2 21.5
2014-Jul-17 04:50S 27°13' E 054°56'1 0.6 1028.6 21.5
2014-Jul-17 03:50S 27°13' E 054°55'0 0.4 1038.1 21.4
2014-Jul-17 02:50S 27°13' E 054°55'0 0.2 1027.6 21.4
2014-Jul-17 01:50S 27°13' E 054°55'0 0.2 1026.5 21.4
2014-Jul-17 00:50S 27°13' E 054°55'1 1.0 1026.4 21.4
2014-Jul-16 23:50S 27°12' E 054°54'0 0.0 1027.4 21.5
2014-Jul-16 22:50S 27°12' E 054°54'0 0.1 1027.5 21.4
2014-Jul-16 21:50S 27°12' E 054°54'1 0.3 1027.7 21.4
2014-Jul-16 19:50S 27°12' E 054°54'1 0.6 1027.9 21.5
2014-Jul-16 18:50S 27°11' E 054°55'1 0.7 1028.9 21.5
2014-Jul-16 17:50S 27°11' E 054°55'0 0.2 1027.2 21.5
2014-Jul-16 16:50S 27°11' E 054°55'1 0.3 1026.5 21.5
2014-Jul-16 13:50S 27°10' E 054°56'0 0.3 1019.6 21.5
2014-Jul-16 12:50S 27°10' E 054°57'1 0.9 1024.5 21.5
2014-Jul-16 11:50S 27°10' E 054°58'1 0.7 1022.7 21.6
2014-Jul-16 10:50S 27°11' E 054°58'1 0.8 1027.3 21.6
2014-Jul-16 09:50S 27°11' E 054°59'1 0.9 1027.2 21.6
2014-Jul-16 08:50S 27°12' E 054°60'1 0.3 1024.3 21.5
2014-Jul-16 06:50S 27°12' E 054°59'1 0.5 1032.6 21.5
2014-Jul-16 04:50S 27°13' E 054°60'1 1.0 1030.8 21.5
2014-Jul-16 03:50S 27°14' E 054°59'0 0.0 1025.4 21.5
2014-Jul-16 02:50S 27°14' E 054°59'1 0.7 1026.2 21.5
2014-Jul-16 01:50S 27°15' E 054°58'0 0.0 1025.8 21.5
2014-Jul-16 00:50S 27°15' E 054°58'1 0.5 1025.4 21.5
2014-Jul-15 23:50S 27°15' E 054°58'0 0.0 1024.6 21.5
2014-Jul-15 22:50S 27°15' E 054°58'0 0.2 1026.3 21.5
2014-Jul-15 21:50S 27°15' E 054°58'0 0.2 1026.0 21.5
2014-Jul-15 19:50S 27°15' E 054°57'0 0.3 1024.4 21.5
2014-Jul-15 18:50S 27°14' E 054°57'0 0.4 1025.5 21.5
2014-Jul-15 17:50S 27°14' E 054°58'0 0.3 1023.5 21.5
2014-Jul-15 16:50S 27°14' E 054°58'0 0.0 1024.5 21.5
2014-Jul-15 15:50S 27°14' E 054°58'2 0.9 1023.5 21.5
2014-Jul-15 13:50S 27°14' E 055°00'1 0.7 1021.0 21.6
2014-Jul-15 12:50S 27°15' E 055°01'0 0.5 1020.0 21.6
2014-Jul-15 11:50S 27°15' E 055°01'2 1.7 1021.4 21.6
2014-Jul-15 10:50S 27°16' E 055°02'0 0.0 1015.3 21.6
2014-Jul-15 09:50S 27°16' E 055°02'0 0.1 1021.1 21.6
2014-Jul-15 08:50S 27°16' E 055°02'2 0.8 1021.2 21.6
2014-Jul-15 05:50S 27°19' E 055°03'0 0.4 1024.4 21.5
2014-Jul-15 04:50S 27°19' E 055°02'1 0.4 1023.0 21.5
2014-Jul-15 02:50S 27°20' E 055°02'1 0.8 1018.4 21.5
2014-Jul-15 01:50S 27°20' E 055°01'0 0.4 1021.0 21.5
2014-Jul-15 00:50S 27°20' E 055°01'1 1.2 1019.7 21.5
2014-Jul-14 23:50S 27°20' E 054°59'1 0.7 1021.1 21.6
2014-Jul-14 22:50S 27°20' E 054°59'0 0.1 1021.0 21.6
2014-Jul-14 21:50S 27°20' E 054°59'1 1.2 1021.0 21.6
2014-Jul-14 20:50S 27°19' E 054°57'   1021.1 21.6
Track history (hours):
 
Tides and Currents Weather Stations Pressure Air Temp Water Temp Dewpoint Dewpoint Depression Visibility Wind Speed Wind Dir Waves Ship Positions

Drifting buoy 16575

Last reported at 2014-Jul-24 19:50 UTC. Time now 2014-Jul-24 23:07 UTC.
Position S 27°46' E 055°16'.

Barometer 1030.9 mb
Water temperature 21.2 ° C

Date/timePositionNaut miles runAvg speedWind from/ knotsBaromVisibWave heightAir tempDewpointWater temp
2014-Jul-24 19:50S 27°46' E 055°16'1 0.7 1030.9 21.2
2014-Jul-24 17:50S 27°45' E 055°17'0 0.3 1031.3 21.2
2014-Jul-24 16:50S 27°45' E 055°17'1 1.1 1029.6 21.2
2014-Jul-24 15:50S 27°44' E 055°18'0 0.1 1029.7 21.2
2014-Jul-24 14:50S 27°44' E 055°18'0 0.4 1030.1 21.3
2014-Jul-24 13:50S 27°44' E 055°18'2 0.9 1029.4 21.3
2014-Jul-24 11:50S 27°44' E 055°20'0 0.2 1026.5 21.3
2014-Jul-24 10:50S 27°44' E 055°20'1 0.8 1028.9 21.4
2014-Jul-24 09:50S 27°44' E 055°21'0 0.1 1029.2 21.4
2014-Jul-24 08:50S 27°44' E 055°21'1 0.4 1030.9 21.4
2014-Jul-24 05:50S 27°45' E 055°22'0 0.1 1032.2 21.4
2014-Jul-24 04:50S 27°44' E 055°22'0 0.1 1031.5 21.4
2014-Jul-24 03:50S 27°45' E 055°22'0 0.1 1030.3 21.4
2014-Jul-24 01:50S 27°45' E 055°22'0 0.3 1029.7 21.3
2014-Jul-24 00:50S 27°45' E 055°22'0 0.2 1028.5 21.2
2014-Jul-23 23:50S 27°44' E 055°22'0 0.3 1029.5 21.1
2014-Jul-23 22:50S 27°44' E 055°22'0 0.1 1029.0 21.1
2014-Jul-23 21:50S 27°45' E 055°22'1 0.7 1029.2 21.1
2014-Jul-23 20:50S 27°45' E 055°23'1 0.7 1028.6 21.1
2014-Jul-23 18:50S 27°46' E 055°24'1 0.9 1027.9 21.1
2014-Jul-23 17:50S 27°46' E 055°24'0 0.0 1028.6 21.2
2014-Jul-23 16:50S 27°46' E 055°24'1 0.8 1027.2 21.2
2014-Jul-23 15:50S 27°47' E 055°25'1 0.7 1026.6 21.2
2014-Jul-23 14:50S 27°47' E 055°25'0 0.3 1025.9 21.3
2014-Jul-23 13:50S 27°48' E 055°26'1 0.6 1024.3 21.3
2014-Jul-23 12:50S 27°48' E 055°26'0 0.3 1023.4 21.3
2014-Jul-23 11:50S 27°48' E 055°27'1 0.8 1023.5 21.3
2014-Jul-23 10:50S 27°48' E 055°27'0 0.0 1024.1 21.3
2014-Jul-23 08:50S 27°48' E 055°27'1 0.4 1025.2 21.3
2014-Jul-23 05:50S 27°49' E 055°28'0 0.3 1023.0 21.2
2014-Jul-23 04:50S 27°49' E 055°28'0 0.3 1028.6 21.1
2014-Jul-23 03:50S 27°50' E 055°28'1 0.3 1025.2 21.1
2014-Jul-23 01:50S 27°50' E 055°27'1 0.5 1023.2 21.1
2014-Jul-23 00:50S 27°51' E 055°27'0 0.3 1021.3 21.1
2014-Jul-22 23:50S 27°51' E 055°27'0 0.2 1022.2 21.1
2014-Jul-22 22:50S 27°51' E 055°27'1 0.4 1022.5 21.1
2014-Jul-22 20:50S 27°52' E 055°27'1 0.9 1022.1 21.1
2014-Jul-22 19:50S 27°53' E 055°26'1 0.6 1021.9 21.1
2014-Jul-22 18:50S 27°53' E 055°26'1 0.6 1022.1 21.2
2014-Jul-22 17:50S 27°54' E 055°26'0 0.0 1021.2 21.2
2014-Jul-22 16:50S 27°54' E 055°26'3 1.0 1021.2 21.2
2014-Jul-22 13:50S 27°55' E 055°23'1 0.6 1016.8 21.3
2014-Jul-22 12:50S 27°55' E 055°22'1 0.5 1016.6 21.3
2014-Jul-22 10:50S 27°56' E 055°21'1 1.1 1020.3 21.4
2014-Jul-22 09:50S 27°56' E 055°20'0 0.0 1021.1 21.4
2014-Jul-22 08:50S 27°56' E 055°20'1 0.4 1020.7 21.4
2014-Jul-22 06:50S 27°56' E 055°19'0 0.0 1024.8 21.4
2014-Jul-22 05:50S 27°56' E 055°19'0 0.4 1025.0 21.3
2014-Jul-22 04:50S 27°55' E 055°19'0 0.3 1027.6 21.3
2014-Jul-22 03:50S 27°56' E 055°19'0 0.1 1027.5 21.3
2014-Jul-22 02:50S 27°55' E 055°19'0 0.4 1021.4 21.3
2014-Jul-22 01:50S 27°56' E 055°19'1 0.6 1021.2 21.3
2014-Jul-22 00:50S 27°56' E 055°18'0 0.0 1021.6 21.3
2014-Jul-21 23:50S 27°56' E 055°18'0 0.2 1021.1 21.3
2014-Jul-21 22:50S 27°56' E 055°18'1 0.4 1021.2 21.3
2014-Jul-21 20:50S 27°57' E 055°17'2 0.8 1022.2 21.4
2014-Jul-21 18:50S 27°57' E 055°16'0 0.0 1024.4 21.4
2014-Jul-21 17:50S 27°57' E 055°16'0 0.2 1021.7 21.4
2014-Jul-21 16:50S 27°58' E 055°15'1 0.6 1021.5 21.5
2014-Jul-21 14:50S 27°58' E 055°14'2 0.8 1020.5 21.5
2014-Jul-21 12:50S 27°59' E 055°12'1 0.9 1018.1 21.5
2014-Jul-21 11:50S 27°59' E 055°11'0 0.1 1020.7 21.6
2014-Jul-21 10:50S 27°59' E 055°11'2 2.1 1021.1 21.5
2014-Jul-21 09:50S 27°59' E 055°09'5 1.5 1019.7 21.5
2014-Jul-21 06:50S 27°58' E 055°04'1 1.0 1025.9 21.5
2014-Jul-21 05:50S 27°58' E 055°03'1 1.1 1029.1 21.4
2014-Jul-21 04:50S 27°57' E 055°02'1 1.2 1027.8 21.4
2014-Jul-21 03:50S 27°57' E 055°00'2 1.6 1027.1 21.4
2014-Jul-21 02:50S 27°56' E 054°59'0 0.1 1022.1 21.4
2014-Jul-21 01:50S 27°56' E 054°59'2 1.8 1021.9 21.4
2014-Jul-21 00:50S 27°55' E 054°57'1 1.0 1022.3 21.4
2014-Jul-20 23:50S 27°55' E 054°56'1 0.5 1022.7 21.4
2014-Jul-20 22:50S 27°54' E 054°56'1 1.4 1022.7 21.5
2014-Jul-20 21:50S 27°53' E 054°55'0 0.0 1022.6 21.5
2014-Jul-20 20:50S 27°53' E 054°55'4 1.2 1022.9 21.5
2014-Jul-20 17:50S 27°50' E 054°53'2 1.6 1023.4 21.5
2014-Jul-20 16:50S 27°49' E 054°51'0 0.3 1023.6 21.6
2014-Jul-20 15:50S 27°49' E 054°52'1 0.8 1022.9 21.6
2014-Jul-20 14:50S 27°48' E 054°51'0 0.4 1021.4 21.7
2014-Jul-20 13:50S 27°48' E 054°51'1 0.9 1014.7 21.7
2014-Jul-20 12:50S 27°47' E 054°51'2 1.7 1018.7 21.8
2014-Jul-20 11:50S 27°45' E 054°51'0 0.0 1021.3 21.8
2014-Jul-20 09:50S 27°45' E 054°51'3 0.8 1023.2 21.9
2014-Jul-20 05:50S 27°42' E 054°50'2 0.8 1028.5 21.3
2014-Jul-20 03:50S 27°41' E 054°49'1 0.6 1030.1 21.3
2014-Jul-20 02:50S 27°41' E 054°49'2 0.9 1023.2 21.3
2014-Jul-20 00:50S 27°39' E 054°47'1 0.6 1023.0 21.3
2014-Jul-19 23:50S 27°39' E 054°47'0 0.0 1023.4 21.3
2014-Jul-19 22:50S 27°39' E 054°47'1 1.4 1023.1 21.3
2014-Jul-19 21:50S 27°38' E 054°46'2 0.5 1023.6 21.3
2014-Jul-19 18:50S 27°36' E 054°46'0 0.3 1024.6 21.3
2014-Jul-19 17:50S 27°36' E 054°46'1 0.6 1024.1 21.3
2014-Jul-19 16:50S 27°35' E 054°46'1 0.4 1025.6 21.3
2014-Jul-19 13:50S 27°34' E 054°47'1 1.0 1021.5 21.4
2014-Jul-19 12:50S 27°33' E 054°46'0 0.4 1021.9 21.4
2014-Jul-19 11:50S 27°33' E 054°46'1 0.9 1019.7 21.5
2014-Jul-19 10:50S 27°32' E 054°47'2 1.8 1023.7 21.5
2014-Jul-19 09:50S 27°30' E 054°46'0 0.0 1019.8 21.5
2014-Jul-19 08:50S 27°30' E 054°46'0 0.1 1018.6 21.5
2014-Jul-19 05:50S 27°30' E 054°46'0 0.4 1026.3 21.4
2014-Jul-19 04:50S 27°30' E 054°47'1 0.8 1029.2 21.4
2014-Jul-19 03:50S 27°29' E 054°47'1 0.3 1024.5 21.4
2014-Jul-19 01:50S 27°28' E 054°47'1 0.8 1024.3 21.4
2014-Jul-19 00:50S 27°28' E 054°47'0 0.1 1022.8 21.4
2014-Jul-18 23:50S 27°28' E 054°47'2 0.9 1025.0 21.4
2014-Jul-18 21:50S 27°26' E 054°47'2 0.7 1024.8 21.4
2014-Jul-18 18:50S 27°24' E 054°48'2 1.6 1026.1 21.5
2014-Jul-18 17:50S 27°23' E 054°49'0 0.0 1025.1 21.5
2014-Jul-18 16:50S 27°23' E 054°49'1 1.4 1025.3 21.5
2014-Jul-18 15:50S 27°22' E 054°50'0 0.1 1024.3 21.5
2014-Jul-18 14:50S 27°22' E 054°50'1 1.0 1023.9 21.5
2014-Jul-18 13:50S 27°21' E 054°51'0 0.2 1017.8 21.5
2014-Jul-18 12:50S 27°21' E 054°51'0 0.0 1019.7 21.5
2014-Jul-18 11:50S 27°21' E 054°51'1 1.3 1019.3 21.5
2014-Jul-18 10:50S 27°20' E 054°52'1 0.6 1023.1 21.6
2014-Jul-18 09:50S 27°20' E 054°52'1 1.0 1027.1 21.5
2014-Jul-18 08:50S 27°19' E 054°52'0 0.1 1024.5 21.5
2014-Jul-18 05:50S 27°18' E 054°52'1 0.7 1023.5 21.4
2014-Jul-18 04:50S 27°18' E 054°52'2 0.6 1030.3 21.4
2014-Jul-18 01:50S 27°16' E 054°53'0 0.5 1025.2 21.4
2014-Jul-18 00:50S 27°15' E 054°53'0 0.5 1024.7 21.4
2014-Jul-17 23:50S 27°15' E 054°53'0 0.2 1027.0 21.4
2014-Jul-17 22:50S 27°15' E 054°53'1 0.6 1026.1 21.4
2014-Jul-17 21:50S 27°15' E 054°53'1 0.7 1026.8 21.4
2014-Jul-17 19:50S 27°14' E 054°54'0 0.1 1027.2 21.5
2014-Jul-17 16:50S 27°13' E 054°54'1 0.6 1027.2 21.5
2014-Jul-17 15:50S 27°13' E 054°55'1 0.2 1025.8 21.5
2014-Jul-17 09:50S 27°13' E 054°56'0 0.1 1026.2 21.8
2014-Jul-17 05:50S 27°13' E 054°56'0 0.3 1034.2 21.5
2014-Jul-17 04:50S 27°13' E 054°56'1 0.6 1028.6 21.5
2014-Jul-17 03:50S 27°13' E 054°55'0 0.4 1038.1 21.4
2014-Jul-17 02:50S 27°13' E 054°55'0 0.2 1027.6 21.4
2014-Jul-17 01:50S 27°13' E 054°55'0 0.2 1026.5 21.4
2014-Jul-17 00:50S 27°13' E 054°55'1 1.0 1026.4 21.4
2014-Jul-16 23:50S 27°12' E 054°54'0 0.0 1027.4 21.5
2014-Jul-16 22:50S 27°12' E 054°54'0 0.1 1027.5 21.4
2014-Jul-16 21:50S 27°12' E 054°54'1 0.3 1027.7 21.4
2014-Jul-16 19:50S 27°12' E 054°54'1 0.6 1027.9 21.5
2014-Jul-16 18:50S 27°11' E 054°55'1 0.7 1028.9 21.5
2014-Jul-16 17:50S 27°11' E 054°55'0 0.2 1027.2 21.5
2014-Jul-16 16:50S 27°11' E 054°55'1 0.3 1026.5 21.5
2014-Jul-16 13:50S 27°10' E 054°56'0 0.3 1019.6 21.5
2014-Jul-16 12:50S 27°10' E 054°57'1 0.9 1024.5 21.5
2014-Jul-16 11:50S 27°10' E 054°58'1 0.7 1022.7 21.6
2014-Jul-16 10:50S 27°11' E 054°58'1 0.8 1027.3 21.6
2014-Jul-16 09:50S 27°11' E 054°59'1 0.9 1027.2 21.6
2014-Jul-16 08:50S 27°12' E 054°60'1 0.3 1024.3 21.5
2014-Jul-16 06:50S 27°12' E 054°59'1 0.5 1032.6 21.5
2014-Jul-16 04:50S 27°13' E 054°60'1 1.0 1030.8 21.5
2014-Jul-16 03:50S 27°14' E 054°59'0 0.0 1025.4 21.5
2014-Jul-16 02:50S 27°14' E 054°59'1 0.7 1026.2 21.5
2014-Jul-16 01:50S 27°15' E 054°58'0 0.0 1025.8 21.5
2014-Jul-16 00:50S 27°15' E 054°58'1 0.5 1025.4 21.5
2014-Jul-15 23:50S 27°15' E 054°58'0 0.0 1024.6 21.5
2014-Jul-15 22:50S 27°15' E 054°58'0 0.2 1026.3 21.5
2014-Jul-15 21:50S 27°15' E 054°58'0 0.2 1026.0 21.5
2014-Jul-15 19:50S 27°15' E 054°57'0 0.3 1024.4 21.5
2014-Jul-15 18:50S 27°14' E 054°57'0 0.4 1025.5 21.5
2014-Jul-15 17:50S 27°14' E 054°58'0 0.3 1023.5 21.5
2014-Jul-15 16:50S 27°14' E 054°58'0 0.0 1024.5 21.5
2014-Jul-15 15:50S 27°14' E 054°58'2 0.9 1023.5 21.5
2014-Jul-15 13:50S 27°14' E 055°00'1 0.7 1021.0 21.6
2014-Jul-15 12:50S 27°15' E 055°01'0 0.5 1020.0 21.6
2014-Jul-15 11:50S 27°15' E 055°01'2 1.7 1021.4 21.6
2014-Jul-15 10:50S 27°16' E 055°02'0 0.0 1015.3 21.6
2014-Jul-15 09:50S 27°16' E 055°02'0 0.1 1021.1 21.6
2014-Jul-15 08:50S 27°16' E 055°02'2 0.8 1021.2 21.6
2014-Jul-15 05:50S 27°19' E 055°03'0 0.4 1024.4 21.5
2014-Jul-15 04:50S 27°19' E 055°02'1 0.4 1023.0 21.5
2014-Jul-15 02:50S 27°20' E 055°02'1 0.8 1018.4 21.5
2014-Jul-15 01:50S 27°20' E 055°01'0 0.4 1021.0 21.5
2014-Jul-15 00:50S 27°20' E 055°01'1 1.2 1019.7 21.5
2014-Jul-14 23:50S 27°20' E 054°59'1 0.7 1021.1 21.6
2014-Jul-14 22:50S 27°20' E 054°59'0 0.1 1021.0 21.6
2014-Jul-14 21:50S 27°20' E 054°59'1 1.2 1021.0 21.6
2014-Jul-14 20:50S 27°19' E 054°57'   1021.1 21.6

Dump ship's entire track history